TimeCDT,TemperatureF,Dew PointF,Humidity,Sea Level PressureIn,VisibilityMPH,Wind Direction,Wind SpeedMPH,Gust SpeedMPH,PrecipitationIn,Events,Conditions,WindDirDegrees,DateUTC
12:54 AM,46.9,43.0,86,29.88,10.0,ESE,8.1,-,N/A,,Clear,120,2012-10-21 05:54:00
1:54 AM,46.9,43.0,86,29.88,10.0,ESE,8.1,-,N/A,,Clear,120,2012-10-21 06:54:00
2:54 AM,46.9,43.0,86,29.88,10.0,ESE,10.4,-,N/A,,Clear,110,2012-10-21 07:54:00
3:54 AM,46.0,43.0,89,29.88,9.0,SE,9.2,-,N/A,,Clear,140,2012-10-21 08:54:00
4:54 AM,46.0,43.0,89,29.87,9.0,SSE,5.8,-,N/A,,Clear,150,2012-10-21 09:54:00
5:54 AM,46.9,43.0,86,29.89,10.0,SE,8.1,-,N/A,,Clear,140,2012-10-21 10:54:00
6:54 AM,46.9,43.0,86,29.88,10.0,SSE,5.8,-,N/A,,Clear,150,2012-10-21 11:54:00
7:54 AM,46.9,43.0,86,29.90,10.0,SE,5.8,-,N/A,,Clear,140,2012-10-21 12:54:00
8:54 AM,54.0,46.0,75,29.91,10.0,South,8.1,-,N/A,,Clear,170,2012-10-21 13:54:00
9:54 AM,59.0,46.9,64,29.92,10.0,South,8.1,-,N/A,,Clear,170,2012-10-21 14:54:00
10:54 AM,64.0,50.0,60,29.92,10.0,South,6.9,-,N/A,,Clear,170,2012-10-21 15:54:00
11:54 AM,68.0,52.0,56,29.91,10.0,SSE,5.8,-,N/A,,Clear,160,2012-10-21 16:54:00
12:54 PM,72.0,55.0,55,29.89,10.0,Variable,6.9,-,N/A,,Clear,0,2012-10-21 17:54:00
1:54 PM,75.0,57.9,55,29.87,10.0,SSE,8.1,-,N/A,,Clear,150,2012-10-21 18:54:00
2:54 PM,75.9,60.1,58,29.85,10.0,SSE,9.2,-,N/A,,Clear,160,2012-10-21 19:54:00
3:54 PM,75.9,60.1,58,29.85,10.0,SE,11.5,-,N/A,,Clear,130,2012-10-21 20:54:00
4:54 PM,75.9,60.1,58,29.84,10.0,SE,9.2,-,N/A,,Clear,130,2012-10-21 21:54:00
5:54 PM,73.0,60.1,64,29.85,10.0,SE,8.1,-,N/A,,Clear,130,2012-10-21 22:54:00
6:54 PM,68.0,59.0,73,29.86,10.0,SE,6.9,-,N/A,,Clear,140,2012-10-21 23:54:00
7:54 PM,64.9,57.9,78,29.88,10.0,SE,5.8,-,N/A,,Clear,140,2012-10-22 00:54:00
8:54 PM,66.0,57.0,73,29.88,10.0,SE,8.1,-,N/A,,Clear,130,2012-10-22 01:54:00
9:54 PM,66.0,57.9,75,29.88,10.0,SSE,9.2,-,N/A,,Clear,150,2012-10-22 02:54:00
10:54 PM,66.9,57.9,73,29.89,10.0,SSE,8.1,-,N/A,,Overcast,150,2012-10-22 03:54:00
11:54 PM,66.9,59.0,76,29.89,10.0,SSE,5.8,-,N/A,,Overcast,150,2012-10-22 04:54:00